Terminal Aerodrome Forecast
Issued by NWS

Home | Current Version | Previous Version | Text Only | Print | Product List | Glossary On
Versions: 1 2 3 4 5 6 7 8 9 10 11 12 13 14 15 16 17 18
000
FTUS41 KPHI 300521
TAFMIV
TAF
KMIV 300521Z 3006/3106 VRB04KT P6SM FEW006 BKN250
     FM300800 VRB02KT 2SM BR BKN006
     FM301100 18004KT P6SM BKN015
     FM301400 20006KT P6SM SCT025
     FM301600 18010G17KT P6SM FEW050
     FM302200 16006KT P6SM SCT060 BKN120=

USA.gov is the U.S. government's official web portal to all federal, state and local government web resources and services.